SAV370R OBBI-FAOR

Flight info

Callsign SAV370R
Flight time N/A
Altitude 38000
Route NARMI N112 ULDEG N687 KSA G667 TUGUP Y517 WDR G667 DTI UM997 DWA M997 AVEDI UM997 WAV UT932 NV/N0483F400 UT912 DO UM315 USUBI UR409 VMV UP312 OKMUX UZ11 NESAG UZ7 OKPIT OKPIT1C
Aircraft A359/H-SDE2E3GHIJ3J4J5LM1ORWXY/LB1D1

Departure

Time 2026-05-05 08:46
Airport Bahrain International Airport (OBBI)

Arrival

Time N/A
Airport O.R. Tambo International Airport (FAOR)
Time Latitude Longitude Altitude Speed Heading
2026-05-05 07:49 26.27142 50.62499 25 ft 0 kts 213°
2026-05-05 08:00 26.27150 50.62505 30 ft 3 kts 213°
2026-05-05 08:00 26.27167 50.62517 28 ft 3 kts 206°
2026-05-05 08:00 26.27185 50.62524 30 ft 3 kts 186°
2026-05-05 08:01 26.27205 50.62524 30 ft 3 kts 166°
2026-05-05 08:01 26.27223 50.62516 30 ft 3 kts 146°
2026-05-05 08:01 26.27237 50.62503 29 ft 1 kts 130°
2026-05-05 08:40 26.27236 50.62503 24 ft 2 kts 130°
2026-05-05 08:40 26.27214 50.62546 29 ft 11 kts 116°
2026-05-05 08:41 26.27161 50.62661 28 ft 22 kts 118°
2026-05-05 08:41 26.27059 50.62841 28 ft 31 kts 123°
2026-05-05 08:41 26.26945 50.63039 27 ft 31 kts 122°
2026-05-05 08:41 26.26830 50.63239 27 ft 31 kts 122°
2026-05-05 08:42 26.26714 50.63440 27 ft 31 kts 123°
2026-05-05 08:42 26.26598 50.63642 28 ft 31 kts 122°
2026-05-05 08:42 26.26487 50.63834 28 ft 26 kts 123°
2026-05-05 08:42 26.26437 50.63920 27 ft 10 kts 122°
2026-05-05 08:43 26.26436 50.64012 27 ft 10 kts 50°
2026-05-05 08:43 26.26474 50.64069 26 ft 9 kts 92°
2026-05-05 08:43 26.26447 50.64115 29 ft 15 kts 126°
2026-05-05 08:43 26.26344 50.64284 30 ft 37 kts 122°
2026-05-05 08:44 26.26137 50.64646 28 ft 41 kts 125°
2026-05-05 08:44 26.26032 50.64812 27 ft 29 kts 121°
2026-05-05 08:44 26.26038 50.64950 30 ft 19 kts 50°
2026-05-05 08:44 26.26145 50.64990 30 ft 11 kts 325°
2026-05-05 08:45 26.26179 50.64922 26 ft 9 kts 303°
2026-05-05 08:45 26.26227 50.64864 25 ft 11 kts 304°
2026-05-05 08:45 26.26272 50.64775 22 ft 25 kts 299°
2026-05-05 08:45 26.26489 50.64398 21 ft 88 kts 303°
2026-05-05 08:46 26.26920 50.63651 21 ft 141 kts 302°
2026-05-05 08:46 26.27540 50.62573 84 ft 182 kts 303°
2026-05-05 08:46 26.28186 50.61398 822 ft 171 kts 301°
2026-05-05 08:46 26.28778 50.60270 1509 ft 167 kts 300°
2026-05-05 08:47 26.29359 50.59143 2034 ft 172 kts 300°
2026-05-05 08:47 26.29957 50.57995 2541 ft 167 kts 301°
2026-05-05 08:47 26.30443 50.56831 2923 ft 163 kts 289°
2026-05-05 08:47 26.30673 50.55592 3168 ft 169 kts 276°
2026-05-05 08:48 26.30768 50.54251 3313 ft 181 kts 274°
2026-05-05 08:48 26.30836 50.52806 3515 ft 191 kts 273°
2026-05-05 08:48 26.30894 50.51305 3744 ft 200 kts 272°
2026-05-05 08:48 26.30958 50.49727 4000 ft 208 kts 273°
2026-05-05 08:49 26.31042 50.48081 4275 ft 216 kts 274°
2026-05-05 08:49 26.31158 50.46375 4567 ft 223 kts 275°
2026-05-05 08:49 26.31313 50.44644 4850 ft 230 kts 276°
2026-05-05 08:49 26.31524 50.42831 5096 ft 238 kts 278°
2026-05-05 08:50 26.31777 50.40972 5306 ft 253 kts 278°
2026-05-05 08:50 26.32040 50.38970 5551 ft 265 kts 278°
2026-05-05 08:50 26.32311 50.36910 5830 ft 276 kts 278°
2026-05-05 08:50 26.32607 50.34744 6141 ft 286 kts 278°
2026-05-05 08:51 26.32932 50.32547 6523 ft 290 kts 279°
2026-05-05 08:51 26.33212 50.30339 7133 ft 285 kts 270°
2026-05-05 08:51 26.33054 50.28143 7696 ft 283 kts 260°
2026-05-05 08:51 26.32725 50.25998 8231 ft 283 kts 259°
2026-05-05 08:52 26.32433 50.23820 8724 ft 284 kts 262°
2026-05-05 08:52 26.32261 50.21647 9079 ft 285 kts 266°
2026-05-05 08:52 26.32210 50.19420 9643 ft 284 kts 269°
2026-05-05 08:52 26.32243 50.17243 10149 ft 286 kts 270°
2026-05-05 08:53 26.32302 50.14983 10388 ft 297 kts 269°
2026-05-05 08:53 26.32294 50.12627 10599 ft 308 kts 268°
2026-05-05 08:53 26.32240 50.10203 10816 ft 320 kts 267°
2026-05-05 08:53 26.32165 50.07683 11009 ft 330 kts 267°
2026-05-05 08:54 26.32089 50.05105 11212 ft 340 kts 267°
2026-05-05 08:54 26.32015 50.02432 11486 ft 347 kts 267°
2026-05-05 08:54 26.31949 49.99741 11856 ft 350 kts 268°
2026-05-05 08:54 26.31886 49.97006 12264 ft 352 kts 268°
2026-05-05 08:55 26.31827 49.94297 12675 ft 354 kts 268°
2026-05-05 08:55 26.31767 49.91542 13064 ft 356 kts 268°
2026-05-05 08:55 26.31706 49.88755 13493 ft 358 kts 268°
2026-05-05 08:55 26.31646 49.85995 13855 ft 359 kts 268°
2026-05-05 08:56 26.31583 49.83206 14234 ft 361 kts 268°
2026-05-05 08:56 26.31520 49.80399 14613 ft 362 kts 268°
2026-05-05 08:56 26.31456 49.77609 14988 ft 363 kts 268°
2026-05-05 08:56 26.31390 49.74803 15358 ft 365 kts 268°
2026-05-05 08:57 26.31323 49.71951 15743 ft 366 kts 268°
2026-05-05 08:57 26.31256 49.69098 16127 ft 368 kts 268°
2026-05-05 08:57 26.31188 49.66262 16521 ft 369 kts 268°
2026-05-05 08:57 26.31119 49.63385 16896 ft 371 kts 268°
2026-05-05 08:58 26.31050 49.60527 17258 ft 373 kts 268°
2026-05-05 08:58 26.30981 49.57643 17633 ft 374 kts 268°
2026-05-05 08:58 26.30909 49.54717 18012 ft 376 kts 268°
2026-05-05 08:58 26.30837 49.51808 18320 ft 378 kts 268°
2026-05-05 08:59 26.30719 49.48868 18610 ft 380 kts 264°
2026-05-05 08:59 26.30247 49.45953 18917 ft 382 kts 255°
2026-05-05 08:59 26.29285 49.43205 19219 ft 384 kts 244°
2026-05-05 08:59 26.28001 49.40620 19526 ft 386 kts 240°
2026-05-05 09:00 26.26556 49.38059 19847 ft 387 kts 238°
2026-05-05 09:00 26.25063 49.35570 20144 ft 389 kts 237°
2026-05-05 09:00 26.23529 49.33063 20452 ft 390 kts 237°
2026-05-05 09:00 26.22014 49.30583 20766 ft 391 kts 237°
2026-05-05 09:01 26.20483 49.28041 21058 ft 393 kts 237°
2026-05-05 09:01 26.18989 49.25529 21362 ft 394 kts 237°
2026-05-05 09:01 26.17474 49.22960 21658 ft 395 kts 238°
2026-05-05 09:01 26.15953 49.20375 21954 ft 397 kts 237°
2026-05-05 09:02 26.14439 49.17810 22256 ft 398 kts 237°
2026-05-05 09:02 26.12931 49.15257 22543 ft 399 kts 237°
2026-05-05 09:02 26.11387 49.12648 22824 ft 400 kts 237°
2026-05-05 09:02 26.09857 49.10068 23106 ft 402 kts 237°
2026-05-05 09:03 26.08325 49.07485 23367 ft 403 kts 237°
2026-05-05 09:03 26.06782 49.04885 23596 ft 404 kts 237°
2026-05-05 09:03 26.05226 49.02266 23838 ft 405 kts 237°
2026-05-05 09:03 26.03668 48.99643 24087 ft 405 kts 237°
2026-05-05 09:04 26.02131 48.97059 24317 ft 406 kts 237°
2026-05-05 09:04 26.00574 48.94441 24544 ft 406 kts 237°
2026-05-05 09:04 25.99009 48.91812 24793 ft 407 kts 237°
2026-05-05 09:04 25.97441 48.89179 25030 ft 407 kts 237°
2026-05-05 09:05 25.95902 48.86581 25255 ft 408 kts 238°
2026-05-05 09:05 25.94506 48.83834 25487 ft 407 kts 243°
2026-05-05 09:05 25.93207 48.81022 25716 ft 408 kts 244°
2026-05-05 09:05 25.91951 48.78188 25949 ft 408 kts 245°
2026-05-05 09:06 25.90730 48.75370 26171 ft 409 kts 245°
2026-05-05 09:06 25.89499 48.72510 26406 ft 410 kts 245°
2026-05-05 09:06 25.88264 48.69641 26651 ft 410 kts 245°
2026-05-05 09:06 25.87045 48.66816 26859 ft 411 kts 245°
2026-05-05 09:07 25.85797 48.63937 27088 ft 412 kts 245°
2026-05-05 09:07 25.84561 48.61094 27318 ft 412 kts 245°
2026-05-05 09:07 25.83309 48.58219 27559 ft 413 kts 245°
2026-05-05 09:07 25.82062 48.55362 27803 ft 413 kts 245°
2026-05-05 09:08 25.80795 48.52459 28027 ft 414 kts 245°
2026-05-05 09:08 25.79549 48.49609 28260 ft 415 kts 245°
2026-05-05 09:08 25.78284 48.46714 28483 ft 416 kts 245°
2026-05-05 09:08 25.77028 48.43844 28728 ft 416 kts 245°
2026-05-05 09:09 25.75765 48.40959 28975 ft 417 kts 245°
2026-05-05 09:09 25.74494 48.38056 29211 ft 418 kts 245°
2026-05-05 09:09 25.73217 48.35142 29449 ft 418 kts 245°
2026-05-05 09:09 25.71953 48.32260 29687 ft 419 kts 245°
2026-05-05 09:10 25.70669 48.29333 29925 ft 420 kts 245°
2026-05-05 09:10 25.69401 48.26446 30114 ft 421 kts 245°
2026-05-05 09:10 25.68109 48.23505 30317 ft 422 kts 245°
2026-05-05 09:10 25.66815 48.20564 30520 ft 423 kts 245°
2026-05-05 09:11 25.65527 48.17637 30731 ft 424 kts 245°
2026-05-05 09:11 25.64248 48.14730 30946 ft 424 kts 245°
2026-05-05 09:11 25.62944 48.11772 31166 ft 425 kts 245°
2026-05-05 09:11 25.61656 48.08851 31357 ft 426 kts 245°
2026-05-05 09:12 25.60346 48.05882 31557 ft 427 kts 245°
2026-05-05 09:12 25.59051 48.02947 31746 ft 428 kts 245°
2026-05-05 09:12 25.57730 47.99958 31930 ft 429 kts 245°
2026-05-05 09:12 25.56412 47.96977 32111 ft 430 kts 245°
2026-05-05 09:13 25.55108 47.94029 32291 ft 430 kts 245°
2026-05-05 09:13 25.53779 47.91025 32472 ft 431 kts 245°
2026-05-05 09:13 25.52466 47.88062 32656 ft 431 kts 245°
2026-05-05 09:13 25.51136 47.85062 32821 ft 432 kts 244°
2026-05-05 09:14 25.49825 47.82105 32993 ft 433 kts 244°
2026-05-05 09:14 25.48489 47.79096 33225 ft 432 kts 244°
2026-05-05 09:14 25.47174 47.76135 33489 ft 431 kts 244°
2026-05-05 09:14 25.45856 47.73171 33777 ft 429 kts 244°
2026-05-05 09:15 25.44535 47.70202 34028 ft 428 kts 244°
2026-05-05 09:15 25.43217 47.67240 34231 ft 427 kts 244°
2026-05-05 09:15 25.41917 47.64321 34459 ft 427 kts 244°
2026-05-05 09:15 25.40600 47.61366 34658 ft 426 kts 244°
2026-05-05 09:16 25.39286 47.58420 34874 ft 426 kts 244°
2026-05-05 09:16 25.37976 47.55485 35093 ft 425 kts 244°
2026-05-05 09:16 25.36679 47.52580 35308 ft 424 kts 244°
2026-05-05 09:16 25.35380 47.49674 35522 ft 424 kts 244°
2026-05-05 09:17 25.34065 47.46733 35725 ft 423 kts 244°
2026-05-05 09:17 25.32773 47.43844 35935 ft 423 kts 244°
2026-05-05 09:17 25.31468 47.40930 36159 ft 422 kts 244°
2026-05-05 09:17 25.30164 47.38019 36379 ft 421 kts 244°
2026-05-05 09:18 25.28875 47.35142 36601 ft 420 kts 244°
2026-05-05 09:18 25.27575 47.32244 36819 ft 419 kts 244°
2026-05-05 09:18 25.26280 47.29361 37055 ft 418 kts 244°
2026-05-05 09:18 25.24981 47.26468 37248 ft 418 kts 244°
2026-05-05 09:19 25.23696 47.23609 37472 ft 417 kts 244°
2026-05-05 09:19 25.22416 47.20763 37679 ft 416 kts 244°
2026-05-05 09:19 25.21125 47.17894 37866 ft 416 kts 244°
2026-05-05 09:20 25.18551 47.12181 37886 ft 415 kts 244°
2026-05-05 09:20 25.15975 47.06471 37890 ft 415 kts 244°
2026-05-05 09:21 25.13391 47.00749 37893 ft 416 kts 243°
2026-05-05 09:21 25.10826 46.95076 37901 ft 416 kts 243°
2026-05-05 09:22 25.08242 46.89369 37905 ft 416 kts 243°
2026-05-05 09:22 25.05647 46.83646 37908 ft 417 kts 243°
2026-05-05 09:23 25.03057 46.77939 37911 ft 417 kts 243°
2026-05-05 09:23 25.00164 46.72377 37910 ft 418 kts 235°
2026-05-05 09:24 24.96139 46.67740 37911 ft 423 kts 221°
2026-05-05 09:24 24.91006 46.64498 37911 ft 432 kts 208°
2026-05-05 09:25 24.85265 46.62331 37909 ft 438 kts 202°
2026-05-05 09:25 24.79396 46.60475 37906 ft 440 kts 202°
2026-05-05 09:26 24.73542 46.58594 37905 ft 439 kts 202°
2026-05-05 09:26 24.67689 46.56645 37899 ft 440 kts 203°
2026-05-05 09:27 24.61866 46.54680 37898 ft 440 kts 203°
2026-05-05 09:27 24.56011 46.52705 37894 ft 440 kts 203°
2026-05-05 09:28 24.50153 46.50734 37898 ft 441 kts 203°
2026-05-05 09:28 24.44297 46.48767 37894 ft 441 kts 202°
2026-05-05 09:29 24.38415 46.46793 37891 ft 441 kts 202°
2026-05-05 09:29 24.32567 46.44832 37886 ft 442 kts 202°
2026-05-05 09:30 24.26673 46.42857 37893 ft 442 kts 202°
2026-05-05 09:30 24.20816 46.40897 37902 ft 443 kts 202°
2026-05-05 09:31 24.14894 46.38918 37890 ft 443 kts 202°
2026-05-05 09:31 24.09016 46.36955 37900 ft 443 kts 202°
2026-05-05 09:32 24.03104 46.34982 37894 ft 445 kts 202°
2026-05-05 09:32 23.97171 46.33004 37896 ft 445 kts 202°
2026-05-05 09:33 23.91244 46.31032 37898 ft 446 kts 202°
2026-05-05 09:33 23.85325 46.29063 37891 ft 446 kts 202°
2026-05-05 09:34 23.79399 46.27092 37895 ft 446 kts 202°
2026-05-05 09:34 23.73441 46.25114 37892 ft 446 kts 202°
2026-05-05 09:35 23.67524 46.23152 37887 ft 446 kts 202°
2026-05-05 09:35 23.58595 46.20193 37885 ft 447 kts 202°
2026-05-05 09:36 23.52650 46.18225 37879 ft 448 kts 201°
2026-05-05 09:36 23.46702 46.16258 37869 ft 448 kts 201°
2026-05-05 09:37 23.40733 46.14287 37866 ft 449 kts 201°
2026-05-05 09:37 23.34759 46.12315 37863 ft 449 kts 201°
2026-05-05 09:38 23.28759 46.10337 37861 ft 450 kts 201°
2026-05-05 09:38 23.22782 46.08369 37857 ft 450 kts 201°
2026-05-05 09:39 23.16779 46.06393 37853 ft 450 kts 201°
2026-05-05 09:39 23.11804 46.04757 37855 ft 451 kts 201°
2026-05-05 09:40 23.05801 46.02785 37845 ft 451 kts 201°
2026-05-05 09:40 22.99794 46.00813 37848 ft 451 kts 201°
2026-05-05 09:41 22.93784 45.98842 37843 ft 452 kts 201°
2026-05-05 09:41 22.87764 45.96870 37840 ft 452 kts 201°
2026-05-05 09:42 22.81712 45.94889 37841 ft 453 kts 201°
2026-05-05 09:42 22.75691 45.92921 37833 ft 453 kts 200°
2026-05-05 09:43 22.69653 45.90948 37830 ft 453 kts 200°
2026-05-05 09:43 22.63600 45.88973 37829 ft 454 kts 200°
2026-05-05 09:44 22.57568 45.87006 37824 ft 454 kts 200°
2026-05-05 09:44 22.51504 45.85030 37822 ft 454 kts 200°
2026-05-05 09:45 22.45486 45.83071 37818 ft 455 kts 200°
2026-05-05 09:45 22.39425 45.81100 37820 ft 455 kts 200°
2026-05-05 09:46 22.33360 45.79129 37812 ft 455 kts 200°
2026-05-05 09:46 22.27287 45.77159 37809 ft 456 kts 200°
2026-05-05 09:47 22.21212 45.75188 37806 ft 456 kts 200°
2026-05-05 09:47 22.15123 45.73215 37805 ft 456 kts 200°
2026-05-05 09:48 22.09063 45.71253 37798 ft 456 kts 200°
2026-05-05 09:48 22.02971 45.69283 37797 ft 457 kts 200°
2026-05-05 09:49 21.96915 45.67326 37797 ft 457 kts 200°
2026-05-05 09:49 21.90817 45.65357 37807 ft 457 kts 199°
2026-05-05 09:50 21.84719 45.63390 37805 ft 457 kts 199°
2026-05-05 09:50 21.78628 45.61427 37814 ft 458 kts 199°
2026-05-05 09:51 21.72515 45.59458 37817 ft 458 kts 199°
2026-05-05 09:51 21.66439 45.57503 37826 ft 458 kts 199°
2026-05-05 09:52 21.60313 45.55534 37828 ft 458 kts 199°
2026-05-05 09:52 21.54201 45.53572 37834 ft 459 kts 199°
2026-05-05 09:53 21.48091 45.51611 37836 ft 459 kts 199°
2026-05-05 09:53 21.41968 45.49648 37842 ft 459 kts 199°
2026-05-05 09:54 21.35865 45.47694 37845 ft 460 kts 199°
2026-05-05 09:54 21.29725 45.45729 37848 ft 460 kts 199°
2026-05-05 09:55 21.23581 45.43765 37854 ft 461 kts 199°
2026-05-05 09:55 21.17437 45.41802 37859 ft 461 kts 199°
2026-05-05 09:56 21.11264 45.39831 37863 ft 462 kts 199°
2026-05-05 09:56 21.05143 45.37879 37871 ft 462 kts 199°
2026-05-05 09:57 20.98943 45.35903 38023 ft 463 kts 199°
2026-05-05 09:57 20.95889 45.34931 38236 ft 463 kts 199°
2026-05-05 09:57 20.92799 45.33948 38458 ft 462 kts 199°
2026-05-05 09:58 20.89732 45.32972 38633 ft 461 kts 199°
2026-05-05 09:58 20.86638 45.31988 38773 ft 461 kts 199°
2026-05-05 09:58 20.83581 45.31016 38929 ft 461 kts 199°
2026-05-05 09:58 20.80535 45.30048 39066 ft 461 kts 199°
2026-05-05 09:59 20.77438 45.29064 39208 ft 460 kts 199°
2026-05-05 09:59 20.74393 45.28098 39347 ft 460 kts 199°
2026-05-05 09:59 20.71308 45.27119 39480 ft 460 kts 199°
2026-05-05 09:59 20.68268 45.26154 39611 ft 460 kts 199°
2026-05-05 10:00 20.65184 45.25177 39734 ft 460 kts 199°
2026-05-05 10:00 20.62106 45.24201 39862 ft 459 kts 199°
2026-05-05 10:00 20.55959 45.22253 39911 ft 463 kts 199°
2026-05-05 10:01 20.49829 45.20314 39909 ft 462 kts 199°
2026-05-05 10:01 20.43600 45.18515 39908 ft 463 kts 197°
2026-05-05 10:02 20.37369 45.16843 39910 ft 463 kts 197°
2026-05-05 10:02 20.31125 45.15151 39914 ft 463 kts 197°
2026-05-05 10:03 20.24861 45.13426 39917 ft 464 kts 197°
2026-05-05 10:03 20.18604 45.11695 39923 ft 464 kts 197°
2026-05-05 10:04 20.12363 45.09968 39929 ft 464 kts 197°
2026-05-05 10:04 20.06102 45.08239 39929 ft 465 kts 197°
2026-05-05 10:05 19.99843 45.06513 39936 ft 465 kts 197°
2026-05-05 10:05 19.93598 45.04792 39941 ft 466 kts 197°
2026-05-05 10:06 19.87332 45.03066 39939 ft 466 kts 197°
2026-05-05 10:06 19.81055 45.01339 39943 ft 466 kts 197°
2026-05-05 10:07 19.74801 44.99620 39945 ft 466 kts 197°
2026-05-05 10:07 19.68533 44.97898 39944 ft 466 kts 197°
2026-05-05 10:08 19.62247 44.96172 39946 ft 467 kts 197°
2026-05-05 10:08 19.55971 44.94451 39947 ft 467 kts 197°
2026-05-05 10:09 19.49674 44.92726 39949 ft 467 kts 197°
2026-05-05 10:09 19.43388 44.91004 39949 ft 467 kts 197°
2026-05-05 10:10 19.37101 44.89284 39957 ft 468 kts 197°
2026-05-05 10:10 19.30764 44.87552 39954 ft 468 kts 196°
2026-05-05 10:11 19.24474 44.85834 39967 ft 468 kts 196°
2026-05-05 10:11 19.18183 44.84117 39971 ft 469 kts 196°
2026-05-05 10:12 19.11833 44.82385 39959 ft 469 kts 196°
2026-05-05 10:12 19.05520 44.80665 39973 ft 469 kts 196°
2026-05-05 10:13 18.99212 44.78947 39974 ft 469 kts 196°
2026-05-05 10:13 18.92887 44.77226 39974 ft 469 kts 196°
2026-05-05 10:14 18.86593 44.75515 39974 ft 470 kts 196°
2026-05-05 10:14 18.80265 44.73796 39974 ft 470 kts 196°
2026-05-05 10:15 18.73908 44.72071 39985 ft 470 kts 196°
2026-05-05 10:15 18.67575 44.70353 39984 ft 470 kts 196°
2026-05-05 10:16 18.61265 44.68643 39975 ft 471 kts 196°
2026-05-05 10:16 18.54882 44.66914 39989 ft 471 kts 196°
2026-05-05 10:17 18.48543 44.65199 39988 ft 471 kts 196°
2026-05-05 10:17 18.42194 44.63482 39987 ft 472 kts 196°
2026-05-05 10:18 18.35833 44.61764 39995 ft 472 kts 196°
2026-05-05 10:18 18.29476 44.60047 40002 ft 472 kts 196°
2026-05-05 10:19 18.23142 44.58338 39997 ft 473 kts 195°
2026-05-05 10:19 18.16757 44.56617 39992 ft 473 kts 195°
2026-05-05 10:20 18.10386 44.54901 40001 ft 473 kts 195°
2026-05-05 10:20 18.04022 44.53188 40009 ft 474 kts 195°
2026-05-05 10:21 17.97617 44.51465 40006 ft 474 kts 195°
2026-05-05 10:21 17.91236 44.49750 40015 ft 474 kts 195°
2026-05-05 10:22 17.84856 44.48037 40029 ft 475 kts 195°
2026-05-05 10:22 17.78466 44.46322 40037 ft 475 kts 195°
2026-05-05 10:23 17.72051 44.44601 40040 ft 475 kts 195°
2026-05-05 10:23 17.65647 44.42885 40050 ft 475 kts 195°
2026-05-05 10:24 17.59235 44.41175 40046 ft 475 kts 194°
2026-05-05 10:24 17.52737 44.39893 40053 ft 476 kts 190°
2026-05-05 10:25 17.46207 44.38837 40045 ft 476 kts 190°
2026-05-05 10:25 17.39610 44.38182 40036 ft 478 kts 185°
2026-05-05 10:26 17.32957 44.37776 40031 ft 478 kts 184°
2026-05-05 10:26 17.26316 44.37400 40033 ft 478 kts 184°
2026-05-05 10:27 17.19680 44.37020 40027 ft 478 kts 184°
2026-05-05 10:27 17.13050 44.36633 40032 ft 478 kts 184°
2026-05-05 10:28 17.06406 44.36244 40044 ft 478 kts 184°
2026-05-05 10:28 16.99790 44.35857 40041 ft 478 kts 184°
2026-05-05 10:29 16.93165 44.35444 40044 ft 478 kts 185°
2026-05-05 10:29 16.86512 44.34807 40043 ft 478 kts 186°
2026-05-05 10:30 16.79904 44.34126 40035 ft 478 kts 186°
2026-05-05 10:30 16.73302 44.33480 40032 ft 478 kts 186°
2026-05-05 10:31 16.66672 44.32846 40026 ft 479 kts 186°
2026-05-05 10:31 16.60048 44.32221 40021 ft 479 kts 186°
2026-05-05 10:32 16.53412 44.31595 40010 ft 479 kts 186°
2026-05-05 10:32 16.46751 44.30966 40003 ft 479 kts 186°
2026-05-05 10:33 16.40120 44.30341 39995 ft 480 kts 186°
2026-05-05 10:33 16.33465 44.29714 39990 ft 480 kts 186°
2026-05-05 10:34 16.26820 44.29088 39993 ft 480 kts 186°
2026-05-05 10:34 16.20186 44.28464 39995 ft 480 kts 186°
2026-05-05 10:35 16.13527 44.27843 40001 ft 480 kts 186°
2026-05-05 10:35 16.06881 44.27228 40005 ft 480 kts 186°
2026-05-05 10:36 16.00281 44.26615 40011 ft 479 kts 186°
2026-05-05 10:36 15.93608 44.25995 40022 ft 479 kts 186°
2026-05-05 10:37 15.86969 44.25383 40022 ft 479 kts 186°
2026-05-05 10:37 15.80365 44.24772 40026 ft 479 kts 186°
2026-05-05 10:38 15.73727 44.24158 40030 ft 479 kts 186°
2026-05-05 10:38 15.67063 44.23543 40028 ft 479 kts 186°
2026-05-05 10:39 15.61548 44.23033 40027 ft 480 kts 186°
2026-05-05 10:39 15.54870 44.22418 40030 ft 480 kts 185°
2026-05-05 10:40 15.48314 44.21487 40029 ft 479 kts 193°
2026-05-05 10:40 15.41825 44.19876 40021 ft 479 kts 194°
2026-05-05 10:41 15.35376 44.18176 40014 ft 479 kts 194°
2026-05-05 10:41 15.28912 44.16470 40007 ft 480 kts 194°
2026-05-05 10:42 15.19182 44.13927 39996 ft 480 kts 194°
2026-05-05 10:43 15.12724 44.12246 39992 ft 481 kts 194°
2026-05-05 10:43 15.06206 44.10549 39984 ft 481 kts 194°
2026-05-05 10:44 14.99715 44.08861 39977 ft 481 kts 194°
2026-05-05 10:44 14.93254 44.07183 39971 ft 481 kts 194°
2026-05-05 10:45 14.86729 44.05486 39959 ft 481 kts 194°
2026-05-05 10:45 14.80265 44.03806 39959 ft 482 kts 194°
2026-05-05 10:46 14.73750 44.02119 39954 ft 482 kts 194°
2026-05-05 10:46 14.67241 44.00429 39953 ft 483 kts 194°
2026-05-05 10:47 14.60716 43.98733 39945 ft 483 kts 194°
2026-05-05 10:47 14.54203 43.97042 39942 ft 483 kts 194°
2026-05-05 10:48 14.47673 43.95358 39945 ft 483 kts 194°
2026-05-05 10:48 14.41189 43.93683 39932 ft 483 kts 194°
2026-05-05 10:49 14.34666 43.91998 39934 ft 482 kts 194°
2026-05-05 10:49 14.28160 43.90319 39919 ft 482 kts 194°
2026-05-05 10:50 14.21653 43.88642 39917 ft 482 kts 194°
2026-05-05 10:50 14.15167 43.86972 39913 ft 482 kts 194°
2026-05-05 10:51 14.08649 43.85294 39918 ft 482 kts 194°
2026-05-05 10:51 14.02133 43.83617 39915 ft 482 kts 194°
2026-05-05 10:52 13.95617 43.81942 39905 ft 483 kts 194°
2026-05-05 10:52 13.89105 43.80254 39902 ft 484 kts 194°
2026-05-05 10:53 13.82661 43.78332 39894 ft 484 kts 197°
2026-05-05 10:53 13.76207 43.76284 39889 ft 484 kts 197°
2026-05-05 10:54 13.69760 43.74276 39887 ft 484 kts 196°
2026-05-05 10:54 13.63281 43.72292 39873 ft 484 kts 196°
2026-05-05 10:55 13.56863 43.70340 39866 ft 484 kts 196°
2026-05-05 10:55 13.50375 43.68368 39857 ft 484 kts 196°
2026-05-05 10:56 13.43920 43.66405 39848 ft 484 kts 196°
2026-05-05 10:56 13.37489 43.64450 39840 ft 484 kts 196°
2026-05-05 10:57 13.31007 43.62480 39835 ft 484 kts 196°
2026-05-05 10:57 13.24590 43.60530 39825 ft 484 kts 196°
2026-05-05 10:58 13.18118 43.58566 39821 ft 485 kts 196°
2026-05-05 10:58 13.11659 43.56607 39813 ft 485 kts 196°
2026-05-05 10:59 13.05160 43.54637 39815 ft 485 kts 196°
2026-05-05 10:59 12.98693 43.52677 39805 ft 485 kts 196°
2026-05-05 11:00 12.92206 43.50712 39808 ft 486 kts 196°
2026-05-05 11:00 12.85765 43.48763 39804 ft 486 kts 196°
2026-05-05 11:01 12.79274 43.46799 39795 ft 486 kts 196°
2026-05-05 11:01 12.72774 43.44834 39789 ft 486 kts 196°
2026-05-05 11:02 12.66305 43.42879 39791 ft 487 kts 196°
2026-05-05 11:02 12.59774 43.40906 39790 ft 487 kts 196°
2026-05-05 11:03 12.53291 43.38948 39790 ft 487 kts 196°
2026-05-05 11:03 12.46826 43.36998 39787 ft 487 kts 196°
2026-05-05 11:04 12.40333 43.35040 39798 ft 487 kts 196°
2026-05-05 11:04 12.33849 43.33086 39797 ft 487 kts 196°
2026-05-05 11:05 12.27349 43.31127 39799 ft 487 kts 196°
2026-05-05 11:05 12.20832 43.29165 39795 ft 488 kts 196°
2026-05-05 11:06 12.14342 43.27212 39798 ft 488 kts 196°
2026-05-05 11:06 12.07823 43.25251 39799 ft 488 kts 196°
2026-05-05 11:07 12.01313 43.23294 39802 ft 489 kts 196°
2026-05-05 11:07 11.94756 43.21324 39799 ft 489 kts 196°
2026-05-05 11:08 11.88247 43.19369 39800 ft 490 kts 196°
2026-05-05 11:08 11.81712 43.17408 39799 ft 490 kts 196°
2026-05-05 11:09 11.75163 43.15442 39797 ft 490 kts 196°
2026-05-05 11:09 11.68623 43.13481 39794 ft 490 kts 196°
2026-05-05 11:10 11.62096 43.11525 39796 ft 491 kts 196°
2026-05-05 11:10 11.55585 43.09393 39800 ft 491 kts 203°
2026-05-05 11:11 11.49629 43.06053 39794 ft 491 kts 212°
2026-05-05 11:11 11.43861 43.02343 39798 ft 492 kts 213°
2026-05-05 11:12 11.38093 42.98575 39796 ft 492 kts 212°
2026-05-05 11:12 11.32299 42.94819 39800 ft 492 kts 212°
2026-05-05 11:13 11.27494 42.91722 39803 ft 492 kts 212°
2026-05-05 11:13 11.21220 42.87687 39807 ft 493 kts 212°
2026-05-05 11:14 11.15425 42.83961 39801 ft 493 kts 212°
2026-05-05 11:14 11.09627 42.80233 39804 ft 493 kts 212°
2026-05-05 11:15 11.03833 42.76510 39804 ft 494 kts 212°
2026-05-05 11:15 10.98017 42.72775 39803 ft 494 kts 212°
2026-05-05 11:16 10.92210 42.69047 39804 ft 494 kts 212°
2026-05-05 11:16 10.86392 42.65313 39806 ft 494 kts 212°
2026-05-05 11:17 10.80600 42.61598 39801 ft 494 kts 212°
2026-05-05 11:17 10.74787 42.57872 39802 ft 494 kts 212°
2026-05-05 11:18 10.68944 42.54127 39802 ft 494 kts 212°
2026-05-05 11:18 10.63161 42.50416 39801 ft 494 kts 213°
2026-05-05 11:19 10.57399 42.46569 39799 ft 494 kts 214°
2026-05-05 11:19 10.51690 42.42704 39801 ft 494 kts 214°
2026-05-05 11:20 10.45950 42.38842 39801 ft 494 kts 213°
2026-05-05 11:20 10.40212 42.35003 39803 ft 494 kts 213°
2026-05-05 11:21 10.34495 42.31183 39797 ft 494 kts 213°
2026-05-05 11:21 10.28744 42.27341 39795 ft 493 kts 213°
2026-05-05 11:22 10.22999 42.23504 39792 ft 493 kts 213°
2026-05-05 11:22 10.17306 42.19703 39797 ft 492 kts 213°
2026-05-05 11:23 10.11585 42.15885 39798 ft 492 kts 213°
2026-05-05 11:23 10.05886 42.12085 39799 ft 492 kts 214°
2026-05-05 11:24 10.00145 42.08257 39805 ft 491 kts 214°
2026-05-05 11:24 9.94466 42.04472 39813 ft 491 kts 214°
2026-05-05 11:25 9.88735 42.00655 39822 ft 490 kts 214°
2026-05-05 11:25 9.83056 41.96874 39838 ft 490 kts 214°
2026-05-05 11:26 9.77381 41.93097 39846 ft 490 kts 214°
2026-05-05 11:26 9.71682 41.89305 39858 ft 489 kts 214°
2026-05-05 11:27 9.65908 41.85623 39875 ft 489 kts 208°
2026-05-05 11:27 9.59508 41.83308 39895 ft 490 kts 195°
2026-05-05 11:28 9.52891 41.81750 39915 ft 491 kts 193°
2026-05-05 11:28 9.46178 41.80274 39932 ft 491 kts 193°
2026-05-05 11:29 9.39534 41.78797 39942 ft 492 kts 193°
2026-05-05 11:29 9.32837 41.77286 39954 ft 492 kts 193°
2026-05-05 11:30 9.26196 41.75781 39958 ft 492 kts 193°
2026-05-05 11:30 9.19533 41.74269 39966 ft 492 kts 193°
2026-05-05 11:31 9.12854 41.72756 39962 ft 492 kts 193°
2026-05-05 11:31 9.06161 41.71242 39963 ft 492 kts 193°
2026-05-05 11:32 8.99478 41.69729 39954 ft 491 kts 193°
2026-05-05 11:32 8.92831 41.68227 39946 ft 491 kts 194°
2026-05-05 11:33 8.86143 41.66715 39947 ft 491 kts 194°
2026-05-05 11:33 8.79489 41.65213 39937 ft 491 kts 193°
2026-05-05 11:34 8.72808 41.63702 39932 ft 491 kts 194°
2026-05-05 11:34 8.66156 41.62200 39926 ft 491 kts 193°
2026-05-05 11:35 8.59509 41.60700 39923 ft 491 kts 193°
2026-05-05 11:35 8.52833 41.59193 39920 ft 491 kts 193°
2026-05-05 11:36 8.46197 41.57696 39917 ft 490 kts 193°
2026-05-05 11:36 8.39516 41.56191 39918 ft 490 kts 193°
2026-05-05 11:37 8.32875 41.54695 39913 ft 490 kts 193°
2026-05-05 11:37 8.26219 41.53195 39914 ft 490 kts 193°
2026-05-05 11:38 8.19562 41.51696 39913 ft 490 kts 193°
2026-05-05 11:38 8.12935 41.50204 39921 ft 490 kts 194°
2026-05-05 11:39 8.06296 41.48709 39922 ft 490 kts 194°
2026-05-05 11:39 7.99628 41.47208 39922 ft 490 kts 194°
2026-05-05 11:40 7.92951 41.45707 39923 ft 490 kts 194°
2026-05-05 11:40 7.86321 41.44216 39927 ft 490 kts 194°
2026-05-05 11:41 7.79659 41.42719 39925 ft 490 kts 194°
2026-05-05 11:41 7.72998 41.41224 39927 ft 490 kts 193°
2026-05-05 11:42 7.66360 41.39732 39928 ft 490 kts 193°
2026-05-05 11:42 7.59709 41.38239 39934 ft 490 kts 193°
2026-05-05 11:43 7.53042 41.36743 39930 ft 491 kts 193°
2026-05-05 11:43 7.46385 41.35249 39930 ft 491 kts 193°
2026-05-05 11:44 7.39694 41.33747 39933 ft 491 kts 193°
2026-05-05 11:44 7.33030 41.32252 39933 ft 492 kts 193°
2026-05-05 11:45 7.26380 41.30761 39934 ft 492 kts 193°
2026-05-05 11:45 7.19692 41.29263 39933 ft 492 kts 193°
2026-05-05 11:46 7.13002 41.27764 39936 ft 492 kts 193°
2026-05-05 11:46 7.06327 41.26267 39936 ft 493 kts 193°
2026-05-05 11:47 6.99639 41.24769 39936 ft 493 kts 193°
2026-05-05 11:47 6.92926 41.23267 39937 ft 493 kts 193°
2026-05-05 11:48 6.82882 41.21019 39935 ft 493 kts 193°
2026-05-05 11:48 6.76194 41.19523 39936 ft 493 kts 193°
2026-05-05 11:49 6.69524 41.18031 39936 ft 494 kts 193°
2026-05-05 11:49 6.62811 41.16531 39935 ft 494 kts 193°
2026-05-05 11:50 6.56110 41.15033 39933 ft 494 kts 193°
2026-05-05 11:50 6.49380 41.13529 39926 ft 495 kts 192°
2026-05-05 11:51 6.42635 41.12022 39927 ft 495 kts 192°
2026-05-05 11:51 6.35926 41.10524 39923 ft 496 kts 192°
2026-05-05 11:52 6.29217 41.09026 39922 ft 496 kts 192°
2026-05-05 11:52 6.22467 41.07520 39920 ft 496 kts 192°
2026-05-05 11:53 6.15704 41.06010 39918 ft 496 kts 192°
2026-05-05 11:53 6.08996 41.04514 39916 ft 496 kts 192°
2026-05-05 11:54 6.02234 41.03006 39912 ft 496 kts 192°
2026-05-05 11:54 5.95489 41.01502 39907 ft 496 kts 192°
2026-05-05 11:55 5.88772 41.00004 39906 ft 496 kts 192°
2026-05-05 11:55 5.82018 40.98499 39903 ft 497 kts 192°
2026-05-05 11:56 5.75267 40.96995 39907 ft 497 kts 193°
2026-05-05 11:56 5.68540 40.95496 39902 ft 497 kts 192°
2026-05-05 11:57 5.61780 40.93990 39900 ft 498 kts 192°
2026-05-05 11:57 5.55017 40.92484 39905 ft 498 kts 192°
2026-05-05 11:58 5.48238 40.90975 39906 ft 499 kts 192°
2026-05-05 11:58 5.41483 40.89472 39911 ft 499 kts 192°
2026-05-05 11:59 5.34694 40.87961 39909 ft 499 kts 192°
2026-05-05 11:59 5.27891 40.86448 39921 ft 499 kts 192°
2026-05-05 12:00 5.21127 40.84944 39914 ft 499 kts 192°
2026-05-05 12:00 5.14364 40.83440 39919 ft 499 kts 192°
2026-05-05 12:01 5.07574 40.81931 39922 ft 499 kts 192°
2026-05-05 12:01 5.00776 40.80420 39922 ft 500 kts 192°
2026-05-05 12:02 4.94014 40.78917 39925 ft 500 kts 192°
2026-05-05 12:02 4.88348 40.77658 39925 ft 501 kts 192°
2026-05-05 12:03 4.80441 40.75902 39924 ft 501 kts 192°
2026-05-05 12:03 4.74762 40.74641 39920 ft 501 kts 192°
2026-05-05 12:04 4.66846 40.72884 39917 ft 500 kts 192°
2026-05-05 12:04 4.61146 40.71619 39914 ft 500 kts 192°
2026-05-05 12:05 4.54384 40.70118 39915 ft 500 kts 192°
2026-05-05 12:05 4.47565 40.68605 39916 ft 500 kts 192°
2026-05-05 12:06 4.40803 40.67104 39909 ft 500 kts 192°
2026-05-05 12:06 4.33998 40.65596 39919 ft 500 kts 192°
2026-05-05 12:07 4.27185 40.64084 39920 ft 501 kts 192°
2026-05-05 12:07 4.20403 40.62580 39918 ft 501 kts 192°
2026-05-05 12:08 4.13593 40.61070 39919 ft 501 kts 192°
2026-05-05 12:08 4.06821 40.59569 39922 ft 500 kts 192°
2026-05-05 12:09 4.00016 40.58062 39923 ft 499 kts 192°
2026-05-05 12:09 3.93253 40.56563 39924 ft 499 kts 192°
2026-05-05 12:10 3.86501 40.55067 39919 ft 499 kts 192°
2026-05-05 12:10 3.79734 40.53568 39921 ft 498 kts 192°
2026-05-05 12:11 3.72947 40.52065 39917 ft 498 kts 192°
2026-05-05 12:11 3.66206 40.50572 39917 ft 498 kts 192°
2026-05-05 12:12 3.59413 40.49068 39920 ft 498 kts 192°
2026-05-05 12:12 3.52679 40.47577 39906 ft 498 kts 192°
2026-05-05 12:13 3.45933 40.46084 39906 ft 498 kts 192°
2026-05-05 12:13 3.39167 40.44587 39900 ft 498 kts 192°
2026-05-05 12:14 3.32396 40.43089 39900 ft 498 kts 192°
2026-05-05 12:14 3.25661 40.41599 39901 ft 498 kts 192°
2026-05-05 12:15 3.18876 40.40097 39895 ft 498 kts 192°
2026-05-05 12:15 3.12120 40.38603 39895 ft 498 kts 192°
2026-05-05 12:16 3.05333 40.37102 39894 ft 498 kts 192°
2026-05-05 12:16 2.98588 40.35610 39888 ft 498 kts 192°
2026-05-05 12:17 2.91829 40.34116 39891 ft 498 kts 192°
2026-05-05 12:17 2.85069 40.32622 39884 ft 499 kts 192°
2026-05-05 12:18 2.78287 40.31123 39892 ft 498 kts 192°
2026-05-05 12:18 2.71520 40.29627 39891 ft 498 kts 192°
2026-05-05 12:19 2.64774 40.28136 39892 ft 498 kts 192°
2026-05-05 12:19 2.58007 40.26641 39883 ft 497 kts 191°
2026-05-05 12:20 2.51269 40.25152 39892 ft 497 kts 192°
2026-05-05 12:20 2.44540 40.23665 39881 ft 497 kts 192°
2026-05-05 12:21 2.37747 40.22165 39872 ft 497 kts 192°
2026-05-05 12:21 2.31034 40.20682 39883 ft 497 kts 191°
2026-05-05 12:22 2.24302 40.19195 39875 ft 496 kts 192°
2026-05-05 12:22 2.17524 40.17698 39879 ft 497 kts 192°
2026-05-05 12:23 2.10783 40.16211 39878 ft 497 kts 192°
2026-05-05 12:23 2.04013 40.14716 39866 ft 498 kts 192°
2026-05-05 12:24 1.97273 40.13228 39868 ft 498 kts 192°
2026-05-05 12:24 1.90487 40.11731 39858 ft 499 kts 192°
2026-05-05 12:25 1.83697 40.10231 39860 ft 499 kts 192°
2026-05-05 12:25 1.77029 40.08329 39858 ft 500 kts 203°
2026-05-05 12:26 1.71225 40.04636 39857 ft 499 kts 223°
2026-05-05 12:26 1.66255 39.99735 39859 ft 500 kts 226°
2026-05-05 12:27 1.61437 39.94710 39856 ft 501 kts 226°
2026-05-05 12:27 1.56616 39.89693 39858 ft 501 kts 226°
2026-05-05 12:28 1.51778 39.84706 39855 ft 502 kts 226°
2026-05-05 12:28 1.46914 39.79710 39852 ft 502 kts 226°
2026-05-05 12:29 1.42064 39.74731 39849 ft 502 kts 226°
2026-05-05 12:29 1.37189 39.69724 39850 ft 502 kts 226°
2026-05-05 12:30 1.32320 39.64722 39850 ft 502 kts 226°
2026-05-05 12:30 1.27466 39.59736 39845 ft 502 kts 226°
2026-05-05 12:31 1.22596 39.54733 39841 ft 502 kts 225°
2026-05-05 12:31 1.17700 39.49706 39838 ft 502 kts 225°
2026-05-05 12:32 1.12837 39.44712 39842 ft 502 kts 225°
2026-05-05 12:32 1.07982 39.39726 39838 ft 502 kts 225°
2026-05-05 12:33 1.03119 39.34732 39840 ft 502 kts 225°
2026-05-05 12:33 0.98242 39.29724 39839 ft 502 kts 225°
2026-05-05 12:34 0.93384 39.24735 39837 ft 502 kts 225°
2026-05-05 12:34 0.88512 39.19734 39842 ft 501 kts 225°
2026-05-05 12:35 0.83657 39.14749 39843 ft 502 kts 225°
2026-05-05 12:35 0.78793 39.09755 39841 ft 501 kts 226°
2026-05-05 12:36 0.73938 39.04771 39835 ft 501 kts 226°
2026-05-05 12:36 0.69071 38.99774 39840 ft 501 kts 226°
2026-05-05 12:37 0.64227 38.94801 39843 ft 501 kts 226°
2026-05-05 12:37 0.59357 38.89802 39848 ft 501 kts 226°
2026-05-05 12:38 0.54479 38.84795 39848 ft 501 kts 226°
2026-05-05 12:38 0.49648 38.79836 39845 ft 500 kts 226°
2026-05-05 12:39 0.44777 38.74837 39844 ft 500 kts 226°
2026-05-05 12:39 0.39947 38.69879 39853 ft 500 kts 226°
2026-05-05 12:40 0.35118 38.64923 39854 ft 499 kts 226°
2026-05-05 12:40 0.30272 38.59948 39859 ft 499 kts 226°
2026-05-05 12:41 0.25416 38.54964 39868 ft 499 kts 226°
2026-05-05 12:41 0.20598 38.50018 39874 ft 499 kts 226°
2026-05-05 12:42 0.15781 38.45074 39881 ft 498 kts 226°
2026-05-05 12:42 0.10933 38.40099 39892 ft 498 kts 226°
2026-05-05 12:43 0.06107 38.35146 39898 ft 498 kts 226°
2026-05-05 12:43 0.01282 38.30193 39908 ft 498 kts 226°
2026-05-05 12:44 -0.03544 38.25241 39915 ft 498 kts 226°
2026-05-05 12:44 -0.08399 38.20257 39928 ft 498 kts 226°
2026-05-05 12:45 -0.13205 38.15325 39936 ft 498 kts 226°
2026-05-05 12:45 -0.18059 38.10343 39950 ft 498 kts 226°
2026-05-05 12:46 -0.22871 38.05403 39960 ft 498 kts 226°
2026-05-05 12:46 -0.27682 38.00466 39969 ft 497 kts 226°
2026-05-05 12:47 -0.32530 37.95490 39981 ft 497 kts 226°
2026-05-05 12:47 -0.37341 37.90552 39996 ft 497 kts 226°
2026-05-05 12:48 -0.42164 37.85601 40012 ft 497 kts 226°
2026-05-05 12:48 -0.46996 37.80642 40029 ft 497 kts 226°
2026-05-05 12:49 -0.51828 37.75682 40042 ft 497 kts 226°
2026-05-05 12:49 -0.56637 37.70745 40047 ft 498 kts 225°
2026-05-05 12:50 -0.61454 37.65800 40057 ft 497 kts 225°
2026-05-05 12:50 -0.66284 37.60842 40067 ft 497 kts 225°
2026-05-05 12:51 -0.71097 37.55902 40074 ft 497 kts 225°
2026-05-05 12:51 -0.75920 37.50950 40077 ft 498 kts 225°
2026-05-05 12:52 -0.80748 37.45993 40082 ft 498 kts 225°
2026-05-05 12:52 -0.85561 37.41052 40097 ft 498 kts 225°
2026-05-05 12:53 -0.90407 37.36077 40101 ft 498 kts 225°
2026-05-05 12:53 -0.95213 37.31142 40115 ft 498 kts 225°
2026-05-05 12:54 -1.02487 37.23673 40131 ft 498 kts 225°
2026-05-05 12:55 -1.07285 37.18746 40139 ft 498 kts 225°
2026-05-05 12:55 -1.12122 37.13779 40158 ft 498 kts 225°
2026-05-05 12:56 -1.16970 37.08800 40174 ft 498 kts 225°
2026-05-05 12:56 -1.21781 37.03860 40184 ft 499 kts 225°
2026-05-05 12:57 -1.26696 36.98921 40179 ft 499 kts 220°
2026-05-05 12:57 -1.32477 36.95174 40186 ft 496 kts 202°
2026-05-05 12:58 -1.39022 36.93176 40178 ft 495 kts 193°
2026-05-05 12:58 -1.45767 36.91591 40186 ft 496 kts 192°
2026-05-05 12:59 -1.52493 36.90034 40186 ft 496 kts 193°
2026-05-05 12:59 -1.59161 36.88381 40185 ft 496 kts 193°
2026-05-05 13:00 -1.69223 36.85866 40186 ft 497 kts 193°
2026-05-05 13:01 -1.82653 36.82554 40184 ft 497 kts 193°
2026-05-05 13:01 -1.89348 36.80907 40175 ft 497 kts 193°
2026-05-05 13:02 -1.96088 36.79247 40174 ft 498 kts 193°
2026-05-05 13:02 -2.02785 36.77598 40173 ft 498 kts 193°
2026-05-05 13:03 -2.09512 36.75941 40170 ft 498 kts 193°
2026-05-05 13:03 -2.16231 36.74286 40161 ft 498 kts 193°
2026-05-05 13:04 -2.22972 36.72624 40154 ft 497 kts 193°
2026-05-05 13:04 -2.29672 36.70973 40158 ft 497 kts 193°
2026-05-05 13:05 -2.36396 36.69316 40147 ft 497 kts 193°
2026-05-05 13:05 -2.43104 36.67662 40141 ft 497 kts 193°
2026-05-05 13:06 -2.48691 36.66285 40137 ft 497 kts 193°
2026-05-05 13:06 -2.55418 36.64627 40135 ft 497 kts 193°
2026-05-05 13:07 -2.62124 36.62973 40133 ft 497 kts 193°
2026-05-05 13:07 -2.68843 36.61317 40133 ft 497 kts 193°
2026-05-05 13:08 -2.75552 36.59662 40121 ft 497 kts 193°
2026-05-05 13:08 -2.82290 36.58001 40122 ft 497 kts 193°
2026-05-05 13:09 -2.89009 36.56344 40125 ft 497 kts 193°
2026-05-05 13:09 -2.95708 36.54691 40123 ft 497 kts 193°
2026-05-05 13:10 -3.02402 36.53039 40120 ft 497 kts 193°
2026-05-05 13:10 -3.09147 36.51375 40143 ft 497 kts 193°
2026-05-05 13:11 -3.15834 36.49725 40146 ft 497 kts 193°
2026-05-05 13:11 -3.22562 36.48065 40159 ft 497 kts 193°
2026-05-05 13:12 -3.29262 36.46410 40164 ft 497 kts 193°
2026-05-05 13:12 -3.35989 36.44749 40173 ft 497 kts 193°
2026-05-05 13:13 -3.42686 36.43096 40158 ft 497 kts 193°
2026-05-05 13:13 -3.49368 36.41447 40157 ft 497 kts 193°
2026-05-05 13:14 -3.56075 36.39790 40146 ft 496 kts 193°
2026-05-05 13:14 -3.62785 36.38133 40121 ft 496 kts 193°
2026-05-05 13:15 -3.69467 36.36482 40123 ft 496 kts 193°
2026-05-05 13:15 -3.76180 36.34823 40123 ft 496 kts 193°
2026-05-05 13:16 -3.82895 36.33164 40121 ft 496 kts 193°
2026-05-05 13:16 -3.89572 36.31513 40122 ft 496 kts 193°
2026-05-05 13:17 -3.96291 36.29852 40120 ft 496 kts 193°
2026-05-05 13:17 -4.02965 36.28202 40116 ft 496 kts 193°
2026-05-05 13:18 -4.09685 36.26540 40112 ft 496 kts 193°
2026-05-05 13:18 -4.16356 36.24890 40104 ft 496 kts 193°
2026-05-05 13:19 -4.23048 36.23235 40107 ft 496 kts 193°
2026-05-05 13:19 -4.29749 36.21577 40110 ft 495 kts 193°
2026-05-05 13:20 -4.36449 36.19919 40096 ft 495 kts 193°
2026-05-05 13:20 -4.43117 36.18268 40094 ft 495 kts 193°
2026-05-05 13:21 -4.49821 36.16608 40094 ft 495 kts 193°
2026-05-05 13:21 -4.56502 36.14954 40096 ft 495 kts 193°
2026-05-05 13:22 -4.63166 36.13303 40091 ft 495 kts 193°
2026-05-05 13:22 -4.69861 36.11645 40092 ft 494 kts 193°
2026-05-05 13:23 -4.76520 36.09995 40090 ft 494 kts 193°
2026-05-05 13:23 -4.83180 36.08344 40094 ft 494 kts 193°
2026-05-05 13:24 -4.89858 36.06689 40087 ft 494 kts 193°
2026-05-05 13:24 -4.96511 36.05040 40090 ft 494 kts 193°
2026-05-05 13:25 -5.03192 36.03383 40084 ft 494 kts 192°
2026-05-05 13:25 -5.09857 36.01730 40078 ft 494 kts 192°
2026-05-05 13:26 -5.16528 36.00075 40070 ft 494 kts 192°
2026-05-05 13:26 -5.23174 35.98426 40070 ft 494 kts 192°
2026-05-05 13:27 -5.29882 35.96762 40064 ft 494 kts 192°
2026-05-05 13:27 -5.36516 35.95115 40061 ft 493 kts 193°
2026-05-05 13:28 -5.43187 35.93459 40051 ft 493 kts 192°
2026-05-05 13:28 -5.49856 35.91802 40047 ft 493 kts 192°
2026-05-05 13:29 -5.56521 35.90147 40041 ft 493 kts 192°
2026-05-05 13:29 -5.63206 35.88486 40045 ft 493 kts 192°
2026-05-05 13:30 -5.69851 35.86834 40037 ft 493 kts 192°
2026-05-05 13:30 -5.76502 35.85180 40034 ft 493 kts 192°
2026-05-05 13:31 -5.83179 35.83520 40031 ft 493 kts 192°
2026-05-05 13:31 -5.89826 35.81868 40047 ft 493 kts 192°
2026-05-05 13:32 -5.96512 35.80205 40065 ft 494 kts 192°
2026-05-05 13:32 -6.03156 35.78552 40088 ft 494 kts 192°
2026-05-05 13:33 -6.09830 35.76891 40102 ft 494 kts 192°
2026-05-05 13:33 -6.16457 35.75241 40102 ft 494 kts 192°
2026-05-05 13:34 -6.23140 35.73577 40105 ft 494 kts 192°
2026-05-05 13:34 -6.29835 35.71909 40078 ft 494 kts 192°
2026-05-05 13:35 -6.36506 35.70247 40026 ft 494 kts 192°
2026-05-05 13:35 -6.43144 35.68593 39980 ft 494 kts 192°
2026-05-05 13:36 -6.49827 35.66927 39926 ft 494 kts 193°
2026-05-05 13:36 -6.56479 35.65268 39908 ft 494 kts 193°
2026-05-05 13:37 -6.63166 35.63601 39905 ft 494 kts 193°
2026-05-05 13:37 -6.69842 35.61935 39907 ft 495 kts 193°
2026-05-05 13:38 -6.76532 35.60265 39899 ft 495 kts 193°
2026-05-05 13:38 -6.83202 35.58600 39905 ft 495 kts 193°
2026-05-05 13:39 -6.89898 35.56928 39897 ft 495 kts 193°
2026-05-05 13:39 -6.96586 35.55258 39894 ft 495 kts 193°
2026-05-05 13:40 -7.03288 35.53584 39901 ft 496 kts 193°
2026-05-05 13:40 -7.09946 35.51919 39898 ft 496 kts 193°
2026-05-05 13:41 -7.16664 35.50240 39894 ft 496 kts 193°
2026-05-05 13:41 -7.23327 35.48574 39895 ft 496 kts 193°
2026-05-05 13:42 -7.30061 35.46889 39895 ft 496 kts 193°
2026-05-05 13:42 -7.36713 35.45225 39899 ft 496 kts 193°
2026-05-05 13:43 -7.43431 35.43543 39903 ft 496 kts 193°
2026-05-05 13:43 -7.50104 35.41873 39911 ft 496 kts 193°
2026-05-05 13:44 -7.56801 35.40195 39919 ft 496 kts 193°
2026-05-05 13:44 -7.63532 35.38509 39922 ft 496 kts 193°
2026-05-05 13:45 -7.70203 35.36837 39935 ft 496 kts 193°
2026-05-05 13:45 -7.76873 35.35165 39952 ft 496 kts 193°
2026-05-05 13:46 -7.83586 35.33481 39959 ft 496 kts 193°
2026-05-05 13:46 -7.90255 35.31809 39971 ft 496 kts 193°
2026-05-05 13:47 -7.96935 35.30132 39979 ft 496 kts 193°
2026-05-05 13:47 -8.03647 35.28447 39986 ft 496 kts 193°
2026-05-05 13:48 -8.10313 35.26772 39995 ft 495 kts 193°
2026-05-05 13:48 -8.17031 35.25086 40012 ft 495 kts 193°
2026-05-05 13:49 -8.23695 35.23411 40015 ft 495 kts 193°
2026-05-05 13:49 -8.30364 35.21734 40023 ft 495 kts 193°
2026-05-05 13:50 -8.37065 35.20049 40020 ft 495 kts 193°
2026-05-05 13:50 -8.43725 35.18374 40024 ft 495 kts 193°
2026-05-05 13:51 -8.50411 35.16691 40028 ft 496 kts 193°
2026-05-05 13:51 -8.57103 35.15006 40027 ft 496 kts 193°
2026-05-05 13:52 -8.63800 35.13321 40028 ft 496 kts 193°
2026-05-05 13:52 -8.70509 35.11631 40029 ft 496 kts 193°
2026-05-05 13:53 -8.77199 35.09945 40025 ft 495 kts 193°
2026-05-05 13:53 -8.83885 35.08258 40021 ft 495 kts 193°
2026-05-05 13:54 -8.90545 35.06579 40023 ft 495 kts 193°
2026-05-05 13:54 -8.97234 35.04892 40025 ft 495 kts 193°
2026-05-05 13:55 -9.03930 35.03202 40029 ft 495 kts 193°
2026-05-05 13:55 -9.10578 35.01524 40029 ft 494 kts 193°
2026-05-05 13:56 -9.17254 34.99838 40032 ft 494 kts 193°
2026-05-05 13:56 -9.23957 34.98142 40035 ft 494 kts 193°
2026-05-05 13:57 -9.30593 34.96465 40038 ft 495 kts 193°
2026-05-05 13:57 -9.37265 34.94778 40038 ft 495 kts 193°
2026-05-05 13:58 -9.43951 34.93086 40041 ft 495 kts 193°
2026-05-05 13:58 -9.50639 34.91393 40037 ft 494 kts 193°
2026-05-05 13:59 -9.60643 34.88861 40035 ft 494 kts 193°
2026-05-05 14:00 -9.69545 34.86605 40030 ft 495 kts 193°
2026-05-05 14:00 -9.76204 34.84917 40025 ft 495 kts 193°
2026-05-05 14:01 -9.82892 34.83222 40022 ft 495 kts 193°
2026-05-05 14:01 -9.89549 34.81533 40014 ft 495 kts 193°
2026-05-05 14:02 -9.96218 34.79841 40006 ft 495 kts 194°
2026-05-05 14:02 -10.02911 34.78142 39996 ft 495 kts 194°
2026-05-05 14:03 -10.09573 34.76450 39983 ft 495 kts 194°
2026-05-05 14:03 -10.16256 34.74751 39973 ft 495 kts 194°
2026-05-05 14:04 -10.22949 34.73049 39966 ft 494 kts 194°
2026-05-05 14:04 -10.29598 34.71359 39957 ft 494 kts 194°
2026-05-05 14:05 -10.36266 34.69662 39953 ft 494 kts 194°
2026-05-05 14:05 -10.42905 34.67972 39947 ft 494 kts 194°
2026-05-05 14:06 -10.49590 34.66269 39948 ft 494 kts 194°
2026-05-05 14:06 -10.56243 34.64574 39944 ft 494 kts 194°
2026-05-05 14:07 -10.62965 34.62860 39953 ft 501 kts 194°
2026-05-05 14:07 -10.69743 34.61132 39953 ft 506 kts 194°
2026-05-05 14:08 -10.76570 34.59390 39953 ft 506 kts 194°
2026-05-05 14:08 -10.83371 34.57654 39957 ft 506 kts 194°
2026-05-05 14:09 -10.90220 34.55905 39954 ft 506 kts 194°
2026-05-05 14:09 -10.97022 34.54168 39954 ft 506 kts 194°
2026-05-05 14:10 -11.03875 34.52417 39960 ft 506 kts 194°
2026-05-05 14:10 -11.10669 34.50679 39960 ft 506 kts 194°
2026-05-05 14:11 -11.17512 34.48927 39956 ft 506 kts 194°
2026-05-05 14:11 -11.24301 34.47190 39961 ft 505 kts 194°
2026-05-05 14:12 -11.31140 34.45439 39956 ft 505 kts 194°
2026-05-05 14:12 -11.37949 34.43695 39954 ft 505 kts 195°
2026-05-05 14:13 -11.44765 34.41947 39957 ft 505 kts 195°
2026-05-05 14:13 -11.51540 34.40208 39963 ft 504 kts 195°
2026-05-05 14:14 -11.58330 34.38466 39962 ft 504 kts 195°
2026-05-05 14:14 -11.65147 34.36715 39964 ft 504 kts 195°
2026-05-05 14:15 -11.71906 34.34980 39963 ft 503 kts 195°
2026-05-05 14:15 -11.78712 34.33230 39959 ft 504 kts 195°
2026-05-05 14:16 -11.85484 34.31489 39963 ft 503 kts 195°
2026-05-05 14:16 -11.92299 34.29736 39965 ft 503 kts 195°
2026-05-05 14:17 -11.99058 34.27996 39968 ft 503 kts 195°
2026-05-05 14:17 -12.05865 34.26243 39972 ft 503 kts 195°
2026-05-05 14:18 -12.12647 34.24495 39974 ft 503 kts 195°
2026-05-05 14:18 -12.19423 34.22748 39972 ft 503 kts 195°
2026-05-05 14:19 -12.26243 34.20989 39980 ft 503 kts 195°
2026-05-05 14:19 -12.32989 34.19248 39979 ft 503 kts 195°
2026-05-05 14:20 -12.39741 34.17505 39985 ft 502 kts 195°
2026-05-05 14:20 -12.46543 34.15748 40037 ft 502 kts 195°
2026-05-05 14:21 -12.53300 34.14001 40040 ft 502 kts 195°
2026-05-05 14:21 -12.60092 34.12244 40048 ft 502 kts 195°
2026-05-05 14:22 -12.66834 34.10500 40051 ft 502 kts 195°
2026-05-05 14:22 -12.73620 34.08743 40055 ft 502 kts 195°
2026-05-05 14:23 -12.80368 34.06994 40061 ft 502 kts 195°
2026-05-05 14:23 -12.87151 34.05236 40066 ft 502 kts 195°
2026-05-05 14:24 -12.93880 34.03491 40067 ft 501 kts 195°
2026-05-05 14:24 -13.00670 34.01729 40075 ft 501 kts 195°
2026-05-05 14:25 -13.07419 33.99977 40079 ft 501 kts 195°
2026-05-05 14:25 -13.14160 33.98226 40079 ft 501 kts 196°
2026-05-05 14:26 -13.20946 33.96462 40089 ft 501 kts 196°
2026-05-05 14:26 -13.27666 33.94714 40100 ft 501 kts 196°
2026-05-05 14:27 -13.34434 33.92952 40102 ft 502 kts 196°
2026-05-05 14:27 -13.41199 33.91191 40108 ft 502 kts 196°
2026-05-05 14:28 -13.47953 33.89432 40114 ft 502 kts 196°
2026-05-05 14:28 -13.54725 33.87666 40121 ft 502 kts 196°
2026-05-05 14:29 -13.61510 33.85897 40129 ft 502 kts 196°
2026-05-05 14:29 -13.68258 33.84136 40129 ft 502 kts 196°
2026-05-05 14:30 -13.75050 33.82361 40130 ft 502 kts 196°
2026-05-05 14:30 -13.81741 33.80381 40129 ft 500 kts 204°
2026-05-05 14:31 -13.88127 33.77638 40130 ft 499 kts 205°
2026-05-05 14:31 -13.94493 33.74754 40127 ft 499 kts 206°
2026-05-05 14:32 -14.00857 33.71832 40127 ft 499 kts 206°
2026-05-05 14:32 -14.07177 33.68928 40121 ft 499 kts 206°
2026-05-05 14:33 -14.13541 33.66008 40110 ft 500 kts 206°
2026-05-05 14:33 -14.19906 33.63089 40111 ft 500 kts 206°
2026-05-05 14:34 -14.26235 33.60185 40106 ft 500 kts 206°
2026-05-05 14:34 -14.32566 33.57278 40099 ft 500 kts 206°
2026-05-05 14:35 -14.38927 33.54355 40095 ft 500 kts 206°
2026-05-05 14:35 -14.45278 33.51435 40090 ft 500 kts 206°
2026-05-05 14:36 -14.51637 33.48509 40078 ft 500 kts 206°
2026-05-05 14:36 -14.57970 33.45593 40067 ft 500 kts 206°
2026-05-05 14:37 -14.64299 33.42677 40058 ft 500 kts 206°
2026-05-05 14:37 -14.70664 33.39743 40050 ft 500 kts 206°
2026-05-05 14:38 -14.77046 33.36799 40040 ft 500 kts 206°
2026-05-05 14:38 -14.83362 33.33884 40030 ft 500 kts 206°
2026-05-05 14:39 -14.89743 33.30937 40024 ft 501 kts 206°
2026-05-05 14:39 -14.96094 33.28002 40004 ft 501 kts 207°
2026-05-05 14:40 -15.02467 33.25055 39997 ft 500 kts 207°
2026-05-05 14:40 -15.08802 33.22124 39990 ft 500 kts 207°
2026-05-05 14:41 -15.15152 33.19184 39988 ft 501 kts 207°
2026-05-05 14:41 -15.21496 33.16244 39980 ft 501 kts 207°
2026-05-05 14:42 -15.27881 33.13283 39977 ft 501 kts 207°
2026-05-05 14:42 -15.34219 33.10342 39970 ft 501 kts 207°
2026-05-05 14:43 -15.40575 33.07391 39972 ft 500 kts 207°
2026-05-05 14:43 -15.46908 33.04449 39972 ft 500 kts 207°
2026-05-05 14:44 -15.53287 33.01483 39957 ft 500 kts 207°
2026-05-05 14:44 -15.59613 32.98540 39953 ft 500 kts 207°
2026-05-05 14:45 -15.65963 32.95583 39957 ft 500 kts 207°
2026-05-05 14:45 -15.72292 32.92636 39963 ft 500 kts 207°
2026-05-05 14:46 -15.78657 32.89668 39957 ft 500 kts 207°
2026-05-05 14:46 -15.85027 32.86696 39956 ft 500 kts 207°
2026-05-05 14:47 -15.91356 32.83741 39945 ft 500 kts 207°
2026-05-05 14:47 -15.97682 32.80786 39944 ft 500 kts 207°
2026-05-05 14:48 -16.04034 32.77816 39955 ft 500 kts 207°
2026-05-05 14:48 -16.10392 32.74842 39949 ft 501 kts 207°
2026-05-05 14:49 -16.16728 32.71875 39950 ft 501 kts 207°
2026-05-05 14:49 -16.23059 32.68909 39943 ft 501 kts 207°
2026-05-05 14:50 -16.29435 32.65920 39933 ft 501 kts 207°
2026-05-05 14:50 -16.35769 32.62949 39932 ft 501 kts 207°
2026-05-05 14:51 -16.42141 32.59957 39931 ft 501 kts 207°
2026-05-05 14:51 -16.48468 32.56984 39945 ft 501 kts 207°
2026-05-05 14:52 -16.54848 32.53984 39945 ft 501 kts 207°
2026-05-05 14:52 -16.61191 32.51000 39941 ft 501 kts 207°
2026-05-05 14:53 -16.67543 32.48010 39951 ft 501 kts 207°
2026-05-05 14:53 -16.73917 32.45005 39961 ft 501 kts 207°
2026-05-05 14:54 -16.80256 32.42016 39972 ft 501 kts 207°
2026-05-05 14:54 -16.86594 32.39025 39979 ft 501 kts 207°
2026-05-05 14:55 -16.92977 32.36011 39989 ft 501 kts 207°
2026-05-05 14:55 -16.99310 32.33018 40001 ft 501 kts 208°
2026-05-05 14:56 -17.05661 32.30015 40009 ft 502 kts 208°
2026-05-05 14:56 -17.12022 32.27004 40021 ft 502 kts 208°
2026-05-05 14:57 -17.18357 32.24003 40032 ft 502 kts 208°
2026-05-05 14:57 -17.24737 32.20980 40037 ft 502 kts 208°
2026-05-05 14:58 -17.31097 32.17963 40053 ft 502 kts 208°
2026-05-05 14:58 -17.37431 32.14956 40062 ft 502 kts 208°
2026-05-05 14:59 -17.42746 32.12431 40071 ft 503 kts 208°
2026-05-05 14:59 -17.49112 32.09404 40080 ft 503 kts 208°
2026-05-05 15:00 -17.55481 32.06374 40091 ft 503 kts 208°
2026-05-05 15:00 -17.61852 32.03341 40095 ft 503 kts 208°
2026-05-05 15:01 -17.68218 32.00308 40104 ft 503 kts 208°
2026-05-05 15:01 -17.74607 31.97261 40114 ft 503 kts 208°
2026-05-05 15:02 -17.80965 31.94227 40124 ft 503 kts 208°
2026-05-05 15:02 -17.87325 31.91190 40133 ft 503 kts 208°
2026-05-05 15:03 -17.93689 31.88147 40138 ft 503 kts 208°
2026-05-05 15:03 -18.00053 31.85102 40145 ft 503 kts 208°
2026-05-05 15:04 -18.06439 31.82045 40149 ft 503 kts 208°
2026-05-05 15:04 -18.12792 31.79001 40147 ft 503 kts 208°
2026-05-05 15:05 -18.22341 31.74421 40146 ft 503 kts 208°
2026-05-05 15:06 -18.28718 31.71360 40134 ft 503 kts 208°
2026-05-05 15:06 -18.35089 31.68298 40130 ft 503 kts 208°
2026-05-05 15:07 -18.41419 31.65254 40121 ft 502 kts 209°
2026-05-05 15:07 -18.47789 31.62188 40114 ft 502 kts 209°
2026-05-05 15:08 -18.54163 31.59118 40098 ft 502 kts 209°
2026-05-05 15:08 -18.60471 31.56077 40085 ft 502 kts 209°
2026-05-05 15:09 -18.66850 31.52999 40075 ft 502 kts 209°
2026-05-05 15:09 -18.73184 31.49940 40069 ft 502 kts 209°
2026-05-05 15:10 -18.79509 31.46884 40057 ft 502 kts 209°
2026-05-05 15:10 -18.85871 31.43807 40051 ft 501 kts 209°
2026-05-05 15:11 -18.92213 31.40737 40047 ft 501 kts 209°
2026-05-05 15:11 -18.98552 31.37666 40043 ft 501 kts 209°
2026-05-05 15:12 -19.04873 31.34601 40039 ft 502 kts 209°
2026-05-05 15:12 -19.11196 31.31532 40038 ft 501 kts 209°
2026-05-05 15:13 -19.17553 31.28445 40036 ft 501 kts 209°
2026-05-05 15:13 -19.23864 31.25377 40030 ft 501 kts 209°
2026-05-05 15:14 -19.30205 31.22291 40026 ft 501 kts 209°
2026-05-05 15:14 -19.36515 31.19219 40023 ft 500 kts 210°
2026-05-05 15:15 -19.42833 31.16140 40022 ft 500 kts 210°
2026-05-05 15:15 -19.49176 31.13045 40019 ft 500 kts 210°
2026-05-05 15:16 -19.55476 31.09970 40017 ft 500 kts 210°
2026-05-05 15:16 -19.61806 31.06877 40012 ft 499 kts 210°
2026-05-05 15:17 -19.68085 31.03805 40008 ft 499 kts 210°
2026-05-05 15:17 -19.74376 31.00725 39999 ft 499 kts 210°
2026-05-05 15:18 -19.80700 30.97627 39995 ft 499 kts 210°
2026-05-05 15:18 -19.86986 30.94545 39987 ft 499 kts 210°
2026-05-05 15:19 -19.93299 30.91447 39977 ft 499 kts 210°